Zurück zum Katalog

TITAN 3C TRANSTAGE DEB

AktivMEO
NORAD 30000·DEBRIS·🇺🇸 United States

Gestartet Sep 26, 1968 von Cape Canaveral Space Force Station

Loading…

Nächste Überflüge (nächste 24 Stunden)

TLE

AktuellSource: Space-Track

Epoche: Sep 14, 2026, 11:50 UTC

1 30000U 68081J   26257.49332190 -.00000349  00000-0  00000-0 0  9996
2 30000   2.0824  46.0940 0105799 318.5334 112.1130  1.00909227 80144

Verfolge TITAN 3C TRANSTAGE DEB in Echtzeit mit AllMySat

Download on the App Store